Weather History for EGLF - October, 2012

Change the Weather History Date:

Monday, October 29, 2012

  Actual Average (EGLL) Record (EGLL)
Temperature  
Mean Temperature 50 °F -  
Max Temperature 55 °F 56 °F 62 °F (2005)
Min Temperature 42 °F 44 °F 30 °F (1997)
Degree Days  
Heating Degree Days 14    
Moisture  
Dew Point 46 °F    
Average Humidity 86    
Maximum Humidity 98    
Minimum Humidity 68    
Precipitation  
Precipitation 0.02 in - - ()
Sea Level Pressure  
Sea Level Pressure 29.77 in    
Wind  
Wind Speed 8 mph ()    
Max Wind Speed 15 mph    
Max Gust Speed -    
Visibility 6.6 miles    
Events Rain    
Averages and records for this station are not official NWS values.
T = Trace of Precipitation, MM = Missing Value Source: Averaged Metar Reports

Daily Weather History Graph

Daily Weather History Graph

Search for Another Location

Airport or City:

Trip Planner

Search our weather history database for the weather conditions in past years. The results will help you decide how hot, cold, wet, or windy it might be!

Date:

Astronomy

Oct. 29, 2012 Rise Set
Actual Time 6:51 AM GMT 4:41 PM GMT
Civil Twilight 6:16 AM GMT 5:16 PM GMT
Nautical Twilight 5:37 AM GMT 5:55 PM GMT
Astronomical Twilight 4:58 AM GMT 6:33 PM GMT
Moon 4:20 PM GMT (10/29) 6:29 AM GMT (10/29)
Length of Visible Light 10h 59m
Length of Day
9h 50m
Full, 100% of the Moon is Illuminated
Oct 29
Full
Oct 29
Full
Nov 7
Last Quarter
Nov 13
New
Nov 20
First Quarter

Hourly Weather History & Observations

Time (GMT) Temp. Windchill Dew Point Humidity Pressure Visibility Wind Dir Wind Speed Gust Speed Precip Events Conditions
5:50 AM 46 °F - 43 °F 84% 29.81 in 17 mi SSW 6.9 mph - -   Scattered Clouds
6:50 AM 46.4 °F 41.9 °F 42.8 °F 87% 29.80 in 6.2 mi SSW 9.2 mph - N/A   Partly Cloudy
7:20 AM 48.2 °F - 44.6 °F 87% 29.80 in 6.2 mi SW 5.8 mph - N/A   Partly Cloudy
7:50 AM 48.2 °F - 44.6 °F 87% 29.80 in 6.2 mi SW 9.2 mph - N/A   Partly Cloudy
8:20 AM 48.2 °F - 44.6 °F 87% 29.80 in 6.2 mi SW 11.5 mph - N/A   Partly Cloudy
8:50 AM 50 °F - 44 °F 75% 29.81 in 22 mi WSW 10.4 mph - -   Mostly Cloudy
8:50 AM 50.0 °F - 44.6 °F 82% 29.80 in - WSW 12.7 mph - N/A   Clear
9:20 AM 50.0 °F - 44.6 °F 82% 29.80 in 6.2 mi SW 10.4 mph - N/A   Partly Cloudy
10:20 AM 51.8 °F - 46.4 °F 82% 29.80 in 6.2 mi WSW 11.5 mph - N/A   Partly Cloudy
10:50 AM 51.8 °F - 46.4 °F 82% 29.80 in 6.2 mi WSW 13.8 mph - N/A   Partly Cloudy
11:20 AM 51.8 °F - 46.4 °F 82% 29.80 in 6.2 mi WSW 15.0 mph - N/A   Partly Cloudy
11:50 AM 54 °F - 46 °F 68% 29.78 in 28 mi WSW 11.5 mph - -   Scattered Clouds
11:50 AM 53.6 °F - 46.4 °F 77% 29.77 in 6.2 mi WSW 13.8 mph - N/A   Partly Cloudy
12:20 PM 53.6 °F - 46.4 °F 77% 29.77 in 6.2 mi WSW 12.7 mph - N/A   Scattered Clouds
1:20 PM 51.8 °F - 44.6 °F 76% 29.77 in 6.2 mi WSW 12.7 mph - N/A   Scattered Clouds
1:50 PM 53.6 °F - 46.4 °F 77% 29.77 in 6.2 mi WSW 9.2 mph - N/A   Scattered Clouds
2:20 PM 53.6 °F - 46.4 °F 77% 29.77 in 6.2 mi WSW 9.2 mph - N/A Rain Light Rain Showers
2:50 PM 52 °F - 48 °F 82% 29.77 in 28 mi WSW 6.9 mph - -   Scattered Clouds
2:50 PM 51.8 °F - 48.2 °F 88% 29.77 in 6.2 mi WSW 9.2 mph - N/A   Partly Cloudy
3:20 PM 53.6 °F - 48.2 °F 82% 29.74 in 6.2 mi WSW 10.4 mph - N/A   Scattered Clouds
3:50 PM 51.8 °F - 48.2 °F 88% 29.74 in 6.2 mi West 6.9 mph - N/A   Scattered Clouds
4:20 PM 50.0 °F - 48.2 °F 94% 29.74 in 6.2 mi WSW 8.1 mph - N/A   Scattered Clouds
4:50 PM 50.0 °F - 48.2 °F 94% 29.74 in 6.2 mi WSW 6.9 mph - N/A   Scattered Clouds
5:20 PM 50.0 °F - 46.4 °F 87% 29.77 in 6.2 mi SW 5.8 mph - N/A   Partly Cloudy
5:50 PM 48 °F - 46 °F 90% 29.76 in 25 mi WSW 3.5 mph - -   Partly Cloudy
5:50 PM 48.2 °F - 46.4 °F 93% 29.74 in 6.2 mi North - - N/A   Partly Cloudy
6:20 PM 48.2 °F - 46.4 °F 93% 29.74 in 6.2 mi WSW 3.5 mph - N/A   Scattered Clouds
6:50 PM 48.2 °F - 46.4 °F 93% 29.74 in 6.2 mi West 5.8 mph - N/A Rain Light Rain
7:20 PM 48.2 °F - 46.4 °F 93% 29.74 in 6.2 mi West 2.3 mph - N/A   Scattered Clouds
7:50 PM 46.4 °F 42.9 °F 44.6 °F 93% 29.74 in 6.2 mi SW 6.9 mph - N/A   Scattered Clouds
8:20 PM 46.4 °F 43.5 °F 44.6 °F 93% 29.74 in 6.2 mi WSW 5.8 mph - N/A   Scattered Clouds
8:50 PM 47 °F - 46 °F 95% 29.77 in 11 mi WNW 5.8 mph - -   Partly Cloudy
8:50 PM 48.2 °F - 46.4 °F 93% 29.77 in 6.2 mi WSW 5.8 mph - N/A   Scattered Clouds
9:20 PM 48.2 °F - 46.4 °F 93% 29.77 in 6.2 mi West 4.6 mph - N/A   Scattered Clouds
11:50 PM 42 °F - 42 °F 98% 29.76 in 4 mi WSW 2.3 mph - -   Mostly Cloudy